TimeEST,TemperatureF,Dew PointF,Humidity,Sea Level PressureIn,VisibilityMPH,Wind Direction,Wind SpeedMPH,Gust SpeedMPH,PrecipitationIn,Events,Conditions,WindDirDegrees,DateUTC
12:54 AM,28.9,26.1,89,29.97,6.0,Calm,Calm,-,N/A,,Overcast,0,2013-01-07 05:54:00
1:54 AM,28.9,26.1,89,30.00,5.0,Calm,Calm,-,N/A,,Overcast,0,2013-01-07 06:54:00
2:54 AM,28.9,26.1,89,30.02,6.0,Calm,Calm,-,N/A,,Overcast,0,2013-01-07 07:54:00
3:54 AM,28.0,25.0,88,30.04,6.0,Calm,Calm,-,N/A,,Mostly Cloudy,0,2013-01-07 08:54:00
4:54 AM,32.0,23.0,69,30.09,10.0,WNW,6.9,-,N/A,,Overcast,290,2013-01-07 09:54:00
5:54 AM,28.0,19.0,69,30.13,10.0,West,10.4,-,N/A,,Mostly Cloudy,280,2013-01-07 10:54:00
6:54 AM,25.0,16.0,69,30.18,10.0,WSW,6.9,-,N/A,,Clear,250,2013-01-07 11:54:00
7:54 AM,24.1,14.0,65,30.23,10.0,WNW,5.8,-,N/A,,Clear,290,2013-01-07 12:54:00
8:40 AM,23.0,12.2,63,30.25,10.0,WNW,9.2,-,N/A,,Mostly Cloudy,290,2013-01-07 13:40:00
8:54 AM,23.0,12.9,65,30.30,10.0,WNW,9.2,-,N/A,,Mostly Cloudy,290,2013-01-07 13:54:00
9:54 AM,24.1,12.9,62,30.34,10.0,WNW,3.5,-,N/A,,Overcast,290,2013-01-07 14:54:00
10:54 AM,24.1,12.9,62,30.34,10.0,WSW,3.5,-,N/A,,Overcast,240,2013-01-07 15:54:00
11:54 AM,28.0,14.0,56,30.34,10.0,Variable,3.5,-,N/A,,Mostly Cloudy,0,2013-01-07 16:54:00
12:54 PM,28.0,12.0,51,30.33,10.0,West,4.6,-,N/A,,Clear,280,2013-01-07 17:54:00
2:54 PM,30.0,5.0,35,30.35,10.0,WNW,6.9,-,N/A,,Clear,290,2013-01-07 19:54:00
3:54 PM,30.0,9.0,41,30.37,10.0,NW,3.5,-,N/A,,Clear,310,2013-01-07 20:54:00
4:54 PM,24.1,9.0,53,30.36,10.0,Calm,Calm,-,N/A,,Clear,0,2013-01-07 21:54:00
6:54 PM,18.0,10.0,71,30.38,10.0,Calm,Calm,-,N/A,,Clear,0,2013-01-07 23:54:00
7:54 PM,15.1,9.0,77,30.37,10.0,Calm,Calm,-,N/A,,Clear,0,2013-01-08 00:54:00
8:54 PM,12.9,8.1,81,30.37,10.0,Calm,Calm,-,N/A,,Clear,0,2013-01-08 01:54:00
9:54 PM,10.0,6.1,84,30.37,8.0,Calm,Calm,-,N/A,,Clear,0,2013-01-08 02:54:00
10:54 PM,10.0,3.9,76,30.36,7.0,Calm,Calm,-,N/A,,Clear,0,2013-01-08 03:54:00
11:54 PM,7.0,3.0,84,30.35,7.0,Calm,Calm,-,N/A,,Clear,0,2013-01-08 04:54:00